Temp
4 4 5 5 5 5 5 5 5 5 5 5 5 5 5 5 5 5 6 8 11 12 13 14 15 15 15 16 15 17 16 15 16 15 16 18 17 17 18 19 18 18 18 17 19 19 19 24 22 23 24 26 27 27
4 5 5 5 5 4 4 4 5 5 5 5 5 5 5 6 5 5 6 8 10 11 12 12 14 12 16 17 18 17 16 17 18 17 18 18 17 15 18 18 21 15 20 19 21 21 24 23 25 24 25 24 26 25
4 5 5 5 5 5 6 5 5 5 5 5 5 5 5 5 5 5 7 8 9 9 10 11 12 12 12 13 14 17 17 20 19 20 19 18 16 18 15 18 20 21 22 20 21 23 24 23 23 24 24 23 25 24
4 5 5 5 5 5 5 5 5 5 5 5 5 6 5 5 4 6 7 8 10 10 9 12 13 12 11 12 12 13 16 19 20 19 17 15 16 20 18 20 20 22 22 21 21 22 23 23 21 23 23 23 22 22
4 5 5 5 5 5 5 5 5 5 5 5 6 5 5 4 5 7 8 8 9 12 11 11 12 12 12 10 12 12 14 19 18 17 15 15 19 20 19 19 19 22 21 19 20 22 22 22 20 19 22 23 21 20
4 4 6 5 5 5 5 5 5 5 6 6 5 5 4 4 6 6 5 7 9 9 10 9 11 11 12 12 11 11 13 18 17 17 16 18 20 19 17 18 21 22 22 22 21 19 19 18 16 17 18 20 21 20
4 4 4 5 5 6 6 6 5 6 6 5 5 4 4 6 7 7 8 8 7 9 10 9 10 10 11 12 12 13 13 16 17 16 15 17 19 18 16 17 21 22 22 21 18 16 18 18 18 15 15 16 15 17
4 4 4 4 4 5 5 4 4 4 4 3 3 4 5 5 6 7 6 6 8 10 9 8 8 7 10 7 10 13 13 14 15 15 16 16 16 16 16 19 20 21 21 18 17 16 16 15 15 14 14 14 14 14
3 4 4 4 4 4 4 3 3 3 3 3 4 4 5 6 6 6 5 7 8 10 9 6 8 8 8 11 10 11 13 13 14 14 14 17 16 15 18 19 20 20 20 19 16 15 15 15 14 13 13 13 13 12
3 3 3 3 3 3 3 3 3 3 3 4 6 7 6 6 5 4 4 6 8 9 8 6 7 7 6 8 9 10 12 11 11 12 16 15 16 18 19 18 18 18 17 15 15 14 13 13 13 12 12 12 11 11
3 3 3 3 3 3 3 3 4 4 6 7 7 5 4 4 6 5 6 7 8 7 9 9 7 6 6 8 9 9 10 11 12 11 12 12 15 14 13 14 15 15 15 14 14 14 13 13 11 10 9 8 8 6
3 3 3 3 4 3 3 4 5 6 5 6 7 6 6 6 4 6 7 7 7 9 10 8 6 4 6 10 11 10 10 10 12 9 9 11 7 7 8 10 11 11 11 10 9 8 8 7 5 4 1 -0 -1 -2
3 3 3 3 3 3 4 4 4 5 5 6 9 6 6 5 6 7 8 9 8 9 9 7 6 7 9 10 9 9 11 10 9 9 10 8 6 5 5 4 4 5 5 4 2 1 0 -1 -1 -1 -1 -2 -2 -3
4 3 3 3 3 4 4 4 4 4 3 8 6 6 7 7 8 7 9 9 6 8 9 9 8 9 9 9 8 9 8 10 11 11 10 6 4 3 2 2 1 0 -0 -0 -1 -1 -1 -1 -1 -2 -2 -2 -2 -2
4 3 3 3 3 3 4 4 4 3 6 5 6 6 5 4 4 4 4 5 4 8 10 9 9 9 7 9 8 9 9 10 9 8 6 4 3 2 1 0 -0 -1 -1 -0 -0 -0 -1 -1 -1 -2 -2 -3 -3 -4
3 3 3 3 4 3 4 4 5 7 6 5 3 4 3 4 3 2 3 4 2 4 9 7 8 8 8 8 9 8 10 8 6 4 3 2 1 1 0 -0 -0 -1 -1 -1 -1 -1 -2 -2 -2 -3 -4 -4 -5 -5
5 3 4 5 7 7 6 6 6 5 4 4 3 1 2 2 1 0 1 1 1 5 6 7 8 6 8 8 7 5 5 4 4 2 2 1 1 0 -0 -0 -0 -1 -1 -1 -2 -2 -2 -2 -2 -2 -3 -4 -5 -6
4 4 5 6 6 6 3 3 5 4 2 2 2 1 0 -1 -1 -2 -1 -0 2 3 5 3 5 5 5 6 4 3 2 1 1 1 1 1 0 -0 -1 -1 -1 -1 -2 -2 -2 -2 -2 -2 -2 -2 -3 -4 -4 -4
4 3 4 5 5 3 3 2 3 2 0 0 -0 -0 -1 -2 -2 -3 -2 -1 -1 0 2 2 1 1 1 -0 0 1 2 1 -0 -1 -1 -1 -2 -2 -2 -2 -2 -3 -3 -3 -3 -3 -3 -3 -3 -3 -3 -4 -5 -5
3 3 4 4 5 3 3 2 1 2 1 -0 -1 -1 -2 -2 -3 -2 -3 -2 -2 -2 -3 -2 -3 -3 -3 -3 -2 0 -0 -0 -1 -1 -1 -2 -3 -3 -3 -3 -3 -4 -4 -4 -4 -4 -5 -5 -6 -6 -6 -6 -7 -8
3 3 3 3 3 2 2 3 2 2 1 1 0 -0 -0 -1 -3 -3 -3 -3 -3 -3 -4 -4 -4 -4 -4 -4 -3 -3 -2 -1 -1 -2 -3 -3 -4 -4 -4 -5 -5 -5 -5 -5 -6 -6 -7 -7 -8 -8 -8 -9 -9 -9
2 2 2 3 4 3 4 2 3 2 3 2 2 1 0 -1 -2 -3 -3 -4 -5 -5 -5 -5 -5 -5 -5 -5 -5 -6 -6 -6 -6 -6 -5 -5 -5 -5 -6 -6 -6 -6 -7 -7 -8 -9 -9 -9 -9 -9 -9 -10 -11 -12
3 3 2 3 3 4 2 4 3 3 4 3 2 1 0 -1 -2 -1 -3 -4 -5 -5 -5 -6 -7 -6 -6 -7 -7 -7 -7 -7 -7 -8 -8 -8 -8 -8 -8 -8 -8 -8 -8 -9 -10 -10 -11 -12 -12 -11 -11 -11 -11 -11
2 -1 1 1 3 2 3 2 4 4 3 3 2 1 -0 -0 -0 -2 -4 -5 -6 -6 -6 -6 -5 -6 -7 -8 -7 -8 -8 -8 -8 -9 -9 -9 -9 -9 -9 -10 -10 -10 -10 -11 -11 -11 -12 -12 -12 -12 -12 -12 -13 -12
1 -2 1 1 1 2 2 2 1 3 1 2 1 -0 -1 0 -1 -3 -4 -5 -6 -7 -7 -7 -7 -7 -7 -8 -9 -10 -10 -9 -9 -8 -8 -9 -9 -10 -11 -12 -12 -11 -11 -11 -12 -12 -13 -13 -13 -13 -14 -15 -14 -13
-1 -2 -1 -1 -0 0 0 0 -0 -0 0 -0 -1 -1 -1 -1 -2 -4 -5 -6 -7 -8 -7 -7 -8 -9 -10 -10 -10 -10 -10 -10 -10 -11 -11 -10 -9 -9 -9 -10 -11 -13 -13 -13 -12 -13 -13 -14 -14 -14 -14 -14 -16 -15
-1 -1 -2 -2 -1 -0 -1 -1 -1 -1 -2 -2 -2 -3 -2 -3 -4 -6 -6 -7 -8 -9 -10 -10 -10 -10 -10 -11 -12 -13 -13 -13 -13 -13 -14 -14 -14 -14 -13 -13 -14 -15 -15 -15 -15 -14 -14 -14 -15 -15 -15 -15 -16 -17
-2 -2 -4 -4 -4 -4 -4 -4 -4 -4 -4 -5 -3 -5 -5 -5 -6 -7 -8 -10 -10 -11 -11 -12 -12 -11 -11 -11 -12 -12 -13 -14 -14 -14 -14 -15 -15 -15 -16 -17 -17 -17 -17 -16 -16 -16 -16 -16 -16 -16 -16 -16 -17 -18
-3 -3 -4 -8 -6 -6 -7 -6 -6 -7 -8 -5 -5 -6 -8 -9 -9 -9 -10 -10 -10 -10 -11 -11 -12 -12 -13 -13 -13 -13 -12 -11 -11 -11 -11 -11 -13 -15 -16 -16 -17 -17 -16 -16 -17 -17 -18 -18 -19 -18 -18 -18 -18 -18
-4 -3 -5 -7 -7 -7 -8 -8 -9 -8 -8 -8 -8 -9 -9 -10 -12 -11 -10 -10 -10 -11 -11 -12 -11 -11 -11 -11 -13 -14 -15 -15 -14 -12 -11 -12 -15 -16 -17 -17 -17 -18 -17 -17 -17 -17 -18 -18 -18 -17 -18 -18 -18 -18
-2 -3 -5 -5 -7 -8 -8 -8 -9 -9 -8 -8 -7 -8 -9 -10 -12 -13 -12 -12 -12 -12 -12 -12 -12 -12 -12 -12 -12 -12 -14 -17 -18 -17 -16 -16 -16 -17 -18 -18 -18 -18 -18 -18 -18 -18 -18 -17 -17 -18 -18 -19 -19 -20
-3 -3 -5 -6 -7 -7 -8 -6 -6 -6 -7 -7 -8 -8 -9 -8 -9 -11 -14 -12 -12 -11 -13 -12 -12 -14 -15 -16 -16 -17 -17 -17 -17 -18 -17 -17 -17 -18 -19 -19 -19 -19 -19 -19 -19 -19 -19 -19 -18 -18 -19 -19 -20 -21
-3 -4 -4 -5 -6 -6 -7 -5 -5 -7 -6 -7 -8 -8 -9 -8 -9 -11 -15 -15 -13 -12 -12 -13 -14 -16 -17 -17 -17 -17 -17 -18 -18 -19 -18 -18 -19 -19 -19 -19 -19 -19 -19 -19 -19 -19 -19 -19 -19 -19 -20 -20 -21 -21
Height
539 526 516 507 501 499 503 510 518 529 540 555 569 582 595 607 621 633 641 650 653 657 660 663 664 666 671 673 677 679 684 695 697 705 704 695 695 701 698 696 699 703 707 715 706 710 713 673 684 692 678 670 670 670
528 515 507 498 489 484 483 490 505 518 531 545 560 574 587 602 616 631 638 648 656 660 664 667 662 667 665 667 668 673 674 675 677 688 687 686 693 697 691 697 684 714 690 695 689 688 672 671 668 668 669 671 668 671
523 513 505 493 481 466 456 469 493 512 527 540 555 570 583 595 611 626 635 645 656 666 671 667 665 668 670 668 670 665 671 665 671 671 676 685 692 684 700 690 680 676 673 687 686 675 670 671 670 669 670 672 669 673
522 515 508 499 489 480 477 485 500 514 527 542 555 567 579 596 614 626 633 642 651 664 666 659 662 668 670 669 673 674 671 665 665 671 678 688 686 670 680 676 675 669 668 677 678 674 668 669 673 668 668 671 672 672
526 519 515 510 505 501 500 505 513 524 537 548 557 571 586 603 619 629 637 646 655 657 655 662 664 666 666 671 671 672 669 662 663 670 681 684 671 671 673 674 670 661 669 678 678 666 667 666 671 671 666 667 671 676
534 525 522 521 519 519 520 524 530 538 547 555 566 578 594 611 620 629 647 656 658 660 661 662 664 661 662 665 673 676 672 658 667 669 673 668 665 669 674 672 662 659 657 661 666 670 671 672 675 675 673 669 670 674
544 535 530 529 530 531 533 537 540 547 557 568 577 592 609 619 627 636 643 647 656 661 662 662 658 659 663 668 667 665 660 660 660 668 671 664 661 667 672 670 657 652 653 658 669 674 671 669 671 678 677 676 679 679
557 550 544 541 540 541 543 549 553 559 568 580 594 608 618 626 636 643 648 649 656 662 668 668 665 667 656 663 661 661 662 664 664 666 662 664 667 670 669 656 654 652 654 664 668 672 673 676 678 679 681 683 683 684
569 565 562 559 558 558 561 566 573 580 588 597 608 618 629 636 643 650 655 659 660 663 663 673 660 659 660 648 656 662 661 665 664 664 665 660 663 666 656 651 650 650 652 658 667 672 673 674 677 681 684 686 689 694
583 579 579 577 577 579 582 586 591 597 603 612 619 625 636 643 648 655 663 661 660 658 662 666 662 658 660 653 656 659 656 663 668 667 659 661 655 649 651 653 653 653 659 667 669 671 675 677 680 684 687 692 696 701
594 593 592 593 595 596 599 602 607 612 616 619 626 635 645 649 650 655 658 656 653 658 652 652 655 656 664 655 654 660 660 660 658 665 663 664 653 660 667 664 665 666 668 672 672 672 676 680 687 693 698 702 707 714
604 604 605 607 608 610 613 616 619 621 623 626 630 642 649 653 656 653 652 655 655 644 640 651 664 669 657 637 643 650 655 657 651 670 671 666 685 687 682 678 676 679 680 680 683 685 689 695 702 708 714 719 725 729
613 614 616 619 621 623 625 626 627 628 629 631 631 641 647 652 645 638 640 637 640 642 643 651 658 648 641 636 647 647 644 654 665 665 667 682 691 693 693 694 694 693 693 695 698 702 706 711 714 720 724 728 732 737
621 624 626 628 630 632 632 632 633 635 636 631 638 640 640 635 633 635 630 631 645 642 638 641 646 643 640 641 644 645 659 656 652 654 667 688 697 700 700 701 701 703 704 706 709 710 715 721 726 730 735 738 741 746
628 630 633 636 638 639 639 635 637 640 640 644 643 646 651 652 652 652 648 647 652 645 640 640 640 641 648 645 652 655 655 656 667 671 690 699 702 704 706 708 710 711 712 713 716 719 725 731 734 739 744 747 751 755
635 638 640 641 640 639 640 641 642 643 648 656 667 662 664 658 660 659 657 653 658 653 640 646 649 653 659 658 653 665 654 669 689 697 703 706 708 711 714 716 718 720 721 724 728 732 737 741 744 748 753 758 762 765
637 641 643 643 642 640 639 642 645 653 659 662 673 680 675 673 680 682 674 671 667 655 652 650 652 670 665 665 676 687 694 701 704 709 710 712 715 719 721 723 725 727 731 734 738 742 746 750 753 756 760 769 772 775
643 644 644 642 639 638 643 649 656 665 675 681 680 686 689 691 687 687 686 679 669 665 663 676 674 679 687 685 699 710 713 716 717 718 718 721 722 725 729 730 734 738 740 744 747 750 754 759 761 765 770 773 776 781
645 647 646 645 643 647 658 667 671 681 692 693 696 697 697 700 701 698 691 686 684 683 683 692 704 712 718 725 724 722 719 722 726 729 730 731 733 736 738 741 744 747 750 754 757 761 764 767 770 773 777 780 783 786
649 651 651 650 646 657 668 676 681 686 693 702 702 704 706 708 707 704 701 697 695 700 715 725 735 739 739 737 734 726 727 730 732 733 737 741 745 747 749 751 755 758 761 764 767 770 773 777 781 784 786 788 790 793
654 656 654 653 659 668 678 680 683 689 694 698 704 705 708 712 713 713 713 715 714 730 741 747 745 749 748 744 740 736 736 735 737 741 746 750 755 756 759 762 764 766 768 772 776 780 783 786 790 792 794 796 798 799
660 661 662 664 669 675 680 685 686 690 691 698 700 705 709 716 720 725 730 731 749 754 756 757 756 754 754 752 751 750 750 750 752 754 757 760 763 766 769 772 773 776 780 784 787 790 793 795 797 798 799 801 803 804
663 665 668 671 672 678 691 686 688 689 689 698 705 709 716 722 730 731 742 754 764 766 764 764 765 763 761 762 761 760 761 762 763 767 770 772 775 777 779 782 785 787 790 793 796 798 801 802 803 804 805 806 806 806
667 677 681 683 684 690 692 695 693 693 697 701 707 717 726 729 733 741 757 768 775 773 771 769 767 769 771 770 770 773 774 774 775 777 781 782 784 788 791 793 796 797 799 801 803 804 806 807 808 809 809 809 809 810
678 700 695 695 698 695 698 703 707 701 712 713 719 727 734 731 738 752 764 775 781 781 779 779 777 778 778 780 783 784 785 784 784 786 790 792 794 797 799 802 804 805 806 806 808 809 810 811 811 811 812 813 812 813
699 714 711 711 712 710 712 713 718 720 720 726 734 738 738 739 748 761 773 783 787 788 786 785 786 787 789 790 791 793 795 795 796 797 801 801 800 801 802 804 807 811 812 812 812 812 813 813 814 814 814 815 816 815
711 717 724 728 724 722 724 729 731 733 737 741 743 746 743 750 763 779 787 791 792 795 794 794 794 795 797 799 801 802 802 802 803 805 808 808 809 809 810 811 813 816 816 815 815 815 815 816 817 817 817 817 817 817
724 729 736 740 741 741 744 746 749 754 756 760 754 762 764 766 776 788 793 797 798 799 800 801 802 802 803 805 806 807 808 809 810 811 812 813 814 815 815 816 817 817 818 818 819 819 819 818 818 818 818 818 818 818
734 738 743 756 749 755 765 765 768 774 778 768 764 772 783 792 794 796 799 800 801 802 803 805 807 808 809 810 811 811 812 811 811 811 812 813 816 820 820 820 820 820 821 821 821 820 820 819 819 819 819 818 818 818
743 743 750 762 764 771 781 781 783 783 781 781 784 790 794 799 803 802 802 802 803 805 808 809 810 811 812 813 814 815 815 816 816 815 815 817 821 823 822 822 822 822 821 821 821 821 820 820 820 820 819 819 819 818
745 746 754 763 774 784 786 787 787 788 787 786 788 788 794 800 806 808 808 808 809 810 811 813 814 815 815 815 815 817 819 820 820 820 821 822 823 823 823 822 822 822 822 822 821 822 821 821 820 820 819 819 818 817
752 753 759 768 778 785 786 782 782 784 786 787 792 795 798 796 799 807 811 811 811 812 813 814 816 818 819 819 820 819 821 822 823 823 824 824 824 823 823 822 822 822 822 822 822 821 821 821 820 820 819 818 817 816
758 760 762 768 777 779 782 780 780 785 785 787 792 794 797 794 798 808 811 811 813 813 815 817 818 819 820 820 821 822 822 822 822 822 823 823 823 823 823 823 823 822 822 821 821 821 821 820 820 819 818 816 815 814
Wind_Speed
39 40 33 29 22 29 37 37 38 43 47 51 50 51 51 55 53 51 29 46 25 10 8 17 13 14 19 18 17 20 16 11 11 12 9 7 6 8 9 14 4 10 9 5 8 8 12 10 9 11 12 12 6 7
39 25 23 22 24 27 37 43 40 43 44 47 53 52 52 53 63 48 20 43 30 9 6 5 18 10 29 27 17 16 18 19 10 10 7 9 5 4 8 9 18 6 6 5 7 5 7 14 10 14 6 7 7 7
32 16 19 18 14 11 13 37 47 43 43 47 51 52 53 51 66 35 29 33 24 6 5 6 10 8 15 23 23 13 13 17 17 14 7 5 5 7 5 8 6 11 16 8 11 6 14 9 11 10 6 8 6 4
27 12 18 16 20 21 31 39 41 39 44 47 45 47 54 65 48 29 31 28 24 5 3 5 11 8 12 17 26 27 19 24 13 9 6 4 5 9 8 9 10 10 6 11 18 19 19 13 10 11 11 10 9 8
31 10 17 19 25 30 33 36 41 42 41 41 42 54 58 51 36 27 25 26 23 7 4 8 1 13 17 19 24 23 22 18 6 7 5 6 7 4 2 4 9 9 11 9 8 9 8 14 4 7 10 11 10 9
30 15 13 17 23 26 31 33 37 38 42 42 48 60 55 43 41 33 4 11 17 8 2 4 1 7 16 21 17 22 22 11 10 10 8 8 13 9 4 8 14 17 15 13 12 3 4 3 3 5 6 7 7 9
29 34 22 18 22 24 28 28 27 34 40 47 58 58 47 39 30 7 4 15 15 10 2 2 2 2 13 9 11 12 14 7 6 9 5 9 9 5 4 9 10 9 13 10 3 3 7 5 2 3 3 2 1 5
32 33 40 43 43 43 44 50 53 57 60 60 57 50 36 34 23 10 15 31 23 7 2 2 3 2 10 2 6 10 10 7 5 5 3 7 6 4 6 14 16 16 8 5 6 5 6 1 1 2 3 2 5 6
32 36 40 44 47 50 54 58 58 57 56 51 47 42 26 9 4 7 23 19 10 3 5 3 3 3 4 7 3 7 6 8 2 7 5 5 6 7 7 13 14 11 8 9 5 3 3 1 3 3 3 4 6 8
25 33 36 40 48 51 53 53 52 51 51 43 27 7 3 7 37 28 1 3 4 4 3 3 3 3 4 3 3 3 3 4 5 5 5 5 9 9 9 3 7 3 7 5 6 4 2 3 4 5 6 7 7 9
28 30 34 37 38 42 45 46 47 42 26 6 3 4 25 20 4 2 3 3 3 3 3 2 2 2 2 6 4 3 3 3 5 3 5 4 5 3 12 2 4 4 5 4 6 6 6 6 7 9 11 11 12 15
27 30 32 32 34 36 37 39 24 10 7 7 16 19 9 2 1 4 5 4 4 5 5 6 4 2 5 4 4 4 3 2 3 4 3 3 2 7 6 4 6 7 8 11 12 14 14 15 14 14 13 14 19 23
28 28 27 28 29 31 33 15 20 22 15 5 3 4 3 3 5 5 7 4 3 4 4 4 3 3 1 3 3 3 3 3 6 2 2 2 2 5 6 7 10 11 14 16 18 20 21 19 22 19 15 21 23 23
26 25 25 24 23 24 19 8 7 3 4 3 2 3 3 2 1 3 4 3 3 2 7 6 2 1 1 2 3 4 3 4 3 4 3 2 3 4 6 7 10 12 13 15 15 16 17 18 20 23 22 22 24 23
28 22 20 21 17 15 18 13 11 4 4 4 4 4 5 3 3 4 3 3 4 2 6 4 3 3 4 4 3 3 2 3 5 3 2 2 6 7 9 9 10 11 12 14 14 15 17 22 23 24 24 25 25 24
26 20 17 12 8 6 7 12 7 2 3 3 5 3 7 1 6 6 8 4 6 5 1 3 3 3 3 2 1 4 2 4 3 3 2 6 9 10 12 12 11 12 14 16 20 23 24 23 24 26 26 25 23 23
9 4 9 7 9 15 12 5 5 5 5 4 4 8 6 3 5 5 6 7 6 4 3 1 4 4 1 3 3 5 4 4 5 6 5 10 12 12 11 13 13 19 21 23 25 25 26 25 25 26 23 22 23 22
6 7 6 10 8 10 8 10 4 5 6 6 4 8 8 7 8 7 6 7 4 3 4 4 3 5 5 3 3 3 5 6 8 7 9 11 13 13 17 16 22 24 25 25 25 25 24 22 22 20 21 20 20 18
13 10 8 13 10 6 4 5 5 4 7 3 4 6 4 5 8 7 7 8 7 7 4 4 6 4 4 4 5 5 6 6 8 9 11 17 20 19 22 24 25 25 25 25 24 22 23 23 20 19 17 16 16 14
13 10 6 12 10 5 4 3 4 4 3 2 2 6 5 5 7 7 9 9 8 4 6 5 5 5 4 5 5 5 6 7 8 10 10 10 19 21 21 20 20 23 23 24 23 22 22 22 21 19 18 16 15 14
16 12 12 13 8 8 3 2 3 3 4 3 3 2 3 6 10 9 7 8 7 4 4 5 6 6 9 11 12 14 12 11 9 9 10 10 16 20 20 21 22 22 21 20 19 20 20 19 17 16 15 15 13 12
5 7 4 6 3 3 3 6 3 2 3 4 3 3 3 4 5 6 6 8 5 5 4 5 7 6 9 12 14 20 20 24 23 22 20 20 11 11 16 19 20 19 20 19 18 17 17 15 14 13 13 12 11 12
6 4 5 7 4 4 3 3 3 4 2 3 2 3 4 3 4 3 4 5 5 8 10 9 13 16 16 20 23 26 22 22 18 19 20 21 22 22 21 21 19 18 17 17 16 15 15 13 13 12 11 10 10 10
7 6 5 4 6 4 2 4 3 3 3 3 3 4 4 4 3 4 5 4 6 10 9 10 9 8 14 17 12 17 19 19 22 22 19 19 18 20 20 20 19 18 16 14 14 13 13 12 11 11 11 11 11 10
6 8 6 6 5 4 4 3 5 4 5 5 3 4 3 2 3 4 3 3 6 7 7 12 13 10 9 10 15 19 19 19 18 16 18 17 17 17 17 17 17 15 12 12 12 11 11 10 11 11 11 11 9 8
8 10 6 7 4 5 5 3 5 6 4 4 5 3 2 3 4 5 3 5 6 6 7 7 7 8 9 15 9 14 15 14 16 18 16 14 13 11 10 9 10 12 11 10 9 9 9 9 9 8 7 7 8 7
6 6 5 5 3 3 4 5 5 5 5 5 3 3 2 4 4 3 4 6 5 9 11 13 14 15 13 14 15 15 15 16 16 16 14 15 15 15 12 11 10 9 8 9 8 8 7 6 5 5 5 6 6 6
5 6 6 6 5 7 4 4 5 5 4 4 2 5 3 4 3 3 4 8 10 11 13 14 14 14 14 13 12 11 12 12 13 14 16 16 15 14 13 12 11 10 8 8 6 5 5 5 5 5 5 5 4 5
5 3 4 7 6 6 7 5 4 4 4 4 2 3 3 3 4 8 7 8 9 10 12 12 12 11 12 12 11 9 7 6 6 6 7 5 7 9 8 7 6 6 5 4 6 5 6 5 4 4 4 4 4 4
4 4 4 6 5 6 5 5 5 4 4 6 6 9 9 8 8 7 8 8 8 10 10 9 7 7 8 8 9 10 11 10 9 6 4 5 6 4 4 5 4 4 4 3 3 3 4 3 2 3 4 3 4 4
2 3 5 5 4 6 5 8 10 10 8 9 7 8 6 4 5 8 8 8 8 8 8 8 7 6 6 6 5 5 7 7 8 9 9 8 6 4 3 3 3 3 3 3 3 2 3 2 2 3 3 4 4 5
4 4 4 4 4 4 1 1 2 3 2 4 4 3 3 3 3 3 2 3 6 6 5 6 6 6 6 7 7 8 8 7 5 6 6 5 5 4 4 3 4 3 2 2 2 3 3 3 4 4 5 5 6 7
6 7 7 4 4 3 3 2 2 3 2 2 2 1 2 2 2 3 2 1 3 6 6 5 6 6 6 6 6 5 5 4 4 4 3 3 4 4 3 3 3 3 3 3 3 4 4 5 5 6 6 7 8 9
Wind_Direction
314 312 299 296 287 252 241 229 220 212 207 200 198 194 194 191 194 182 186 193 193 195 218 225 242 198 207 214 205 208 181 186 196 197 210 216 212 192 217 214 209 188 193 189 229 237 232 132 126 190 215 250 260 244
332 317 317 309 293 266 247 225 204 198 195 194 189 189 191 191 184 178 174 189 198 195 205 277 230 303 207 213 209 212 201 186 192 203 210 220 208 151 210 222 208 234 256 231 218 221 263 182 220 219 274 302 263 273
350 346 349 347 343 320 220 194 179 182 182 183 180 186 183 189 170 169 164 164 164 159 218 204 207 206 231 230 243 222 202 191 207 202 191 206 212 172 180 222 231 226 233 227 256 264 248 238 248 262 281 253 276 261
6 6 22 40 55 93 112 141 157 166 169 170 170 179 182 165 158 162 160 165 161 162 204 222 195 211 215 234 246 251 241 225 207 196 200 194 212 200 208 228 225 226 224 233 251 263 259 247 260 262 251 234 241 217
22 52 51 75 87 95 113 131 141 145 152 159 175 164 154 145 148 144 142 158 170 189 189 216 267 233 198 208 240 256 267 213 200 184 188 214 226 254 204 274 243 234 223 223 239 255 249 258 7 349 253 244 230 245
34 66 82 94 100 112 119 125 134 138 147 155 148 141 136 134 131 114 85 173 187 154 114 186 306 249 208 219 205 237 240 181 197 214 214 227 226 209 227 237 233 240 235 242 255 329 311 329 316 340 311 285 258 238
53 59 94 105 107 114 124 125 135 151 144 143 134 134 132 130 131 99 144 166 167 160 211 343 293 295 212 208 227 246 253 186 207 199 221 213 201 209 233 241 236 245 247 220 208 271 266 226 342 360 350 20 13 228
66 74 76 87 100 106 114 115 104 108 114 118 120 123 127 114 102 72 116 143 141 123 60 233 268 283 169 250 225 212 220 216 222 215 214 200 170 216 236 238 242 255 232 212 219 222 280 37 188 63 83 118 134 126
75 81 91 92 98 102 101 105 111 109 111 111 111 108 101 84 90 107 136 140 157 156 176 182 230 260 139 177 112 176 179 202 241 219 223 205 202 220 232 248 255 244 234 245 160 208 180 166 96 93 116 125 126 131
87 87 97 97 99 104 106 108 109 109 109 109 106 79 89 89 119 121 145 144 179 191 173 209 205 230 4 342 121 136 179 147 180 213 196 226 235 222 235 12 346 33 136 156 169 176 158 150 126 121 112 108 124 125
103 100 99 101 107 112 113 117 120 119 116 86 71 52 119 126 59 57 126 183 141 173 227 180 206 288 91 234 136 177 152 174 176 171 199 201 212 299 357 352 33 71 123 102 79 80 82 108 118 112 100 90 92 90
105 111 111 117 121 122 123 127 113 70 66 94 110 112 130 86 174 177 169 151 195 205 179 158 154 208 240 215 135 177 122 181 154 130 137 193 40 355 356 17 92 85 89 82 83 81 80 80 82 92 96 96 95 99
107 108 114 117 118 124 130 113 97 107 97 105 102 90 166 156 201 196 170 158 168 139 188 133 196 245 186 16 89 146 134 110 131 112 109 73 34 23 58 67 65 70 84 87 83 84 84 86 86 96 97 99 101 99
107 109 111 114 128 141 158 135 127 80 343 47 76 155 283 163 19 22 7 51 43 113 155 161 132 152 273 71 33 74 56 153 160 153 112 70 54 62 70 67 85 76 76 85 88 86 86 87 89 89 93 98 100 99
102 103 114 110 107 116 181 215 230 268 29 46 2 41 34 337 359 358 291 88 6 269 145 138 66 52 16 58 30 116 136 99 25 69 66 62 84 88 82 79 81 84 86 85 88 90 92 96 93 88 86 90 91 90
105 100 118 121 106 144 143 128 151 123 67 72 46 7 352 24 11 9 2 12 7 327 117 51 94 81 49 26 52 22 29 46 60 42 76 94 84 84 88 87 87 90 89 88 88 92 92 91 92 91 86 81 81 88
84 82 108 86 67 65 99 109 56 45 34 29 53 32 9 34 34 20 344 349 321 327 50 19 65 64 149 85 70 18 41 43 66 68 74 92 96 95 95 91 89 91 92 93 94 93 94 95 94 89 87 88 88 87
113 118 92 35 43 47 35 34 66 54 64 30 41 19 51 35 6 9 352 352 349 34 19 54 25 47 37 48 58 51 70 62 62 74 84 88 87 87 91 93 92 92 92 92 92 92 92 92 89 90 94 94 91 88
118 106 66 45 54 80 55 38 31 76 46 37 29 21 33 40 25 5 8 17 38 40 68 46 52 43 43 31 13 1 90 89 92 83 77 74 79 83 85 85 85 84 84 85 82 79 77 76 77 80 81 82 79 73
121 99 49 44 63 66 67 64 63 72 65 101 104 54 52 34 11 23 28 22 37 54 50 42 38 30 360 360 332 322 102 114 112 103 87 76 75 81 81 86 88 91 88 85 82 84 82 77 71 70 70 70 72 62
93 75 40 57 52 68 67 56 76 89 132 107 126 94 61 63 38 31 36 20 48 33 63 32 40 37 29 27 33 52 53 70 81 88 95 91 81 83 82 81 83 81 81 80 81 76 73 71 72 70 71 68 64 64
82 60 59 33 88 80 74 19 75 145 97 126 89 54 51 45 36 35 37 43 59 33 36 35 25 57 55 52 56 67 76 78 76 76 77 83 81 76 73 75 80 78 76 75 77 76 72 69 71 70 71 72 69 61
83 49 51 21 76 54 47 3 60 18 73 76 69 56 45 57 41 48 70 45 51 18 37 65 56 54 73 71 68 64 67 79 79 76 75 76 75 74 74 73 75 81 80 73 76 78 76 72 68 72 70 67 65 60
59 48 30 41 31 69 61 41 22 47 51 51 55 63 47 44 60 69 66 54 25 30 35 40 72 84 70 63 60 61 63 74 79 75 74 80 78 74 75 76 73 72 76 81 79 79 77 74 70 66 62 61 57 54
71 17 5 37 22 46 56 49 24 51 60 43 69 64 51 36 67 70 66 57 37 29 43 48 59 66 75 74 66 59 54 66 74 77 72 80 89 90 84 80 74 67 70 78 76 78 75 70 65 62 59 54 48 47
72 25 32 21 32 32 29 54 41 37 45 64 57 58 27 62 68 68 65 42 45 35 36 53 74 76 64 60 66 57 55 68 81 78 62 58 65 79 90 94 89 67 53 61 68 72 69 65 60 57 57 56 43 36
61 59 55 24 5 50 80 61 45 48 50 39 33 25 45 70 77 80 98 36 70 59 60 68 76 79 81 77 72 68 66 69 77 84 83 73 68 66 71 79 78 65 56 58 61 62 65 64 61 55 55 53 42 32
56 41 62 20 64 32 63 44 37 35 36 355 1 35 54 40 76 56 66 82 89 92 85 78 76 80 82 82 84 80 77 82 90 93 87 75 68 66 67 71 72 67 64 65 60 62 64 65 61 54 49 42 31 23
53 50 79 41 53 55 38 36 43 44 345 329 52 75 89 67 36 104 99 110 112 106 95 90 83 85 82 78 73 67 61 59 83 93 90 91 83 57 57 62 60 64 65 61 58 57 53 57 62 60 50 38 17 5
50 19 87 51 53 51 40 23 68 38 58 71 96 109 101 91 50 57 95 104 101 95 95 94 92 91 87 86 83 71 58 57 52 49 84 83 82 80 61 53 49 42 47 47 44 33 26 30 20 15 23 13 360 345
63 75 75 67 82 89 93 115 117 84 67 70 72 95 105 113 91 58 71 88 106 112 112 105 96 86 84 75 72 90 87 58 67 77 89 92 84 65 54 51 46 40 30 30 26 14 4 354 348 343 339 333 326 327
38 53 112 101 114 133 221 115 81 88 102 97 95 118 150 151 116 124 92 119 128 119 106 122 122 99 87 86 79 89 96 106 93 87 82 75 58 48 44 39 27 23 15 8 355 345 341 335 319 313 307 308 315 319
98 85 92 100 118 147 146 172 105 119 115 104 104 62 45 13 105 105 149 109 55 133 136 116 114 116 109 102 100 97 92 112 130 108 101 69 38 35 43 2 358 349 345 336 328 322 314 305 300 302 306 309 312 311